Portland, ME

4:14 PM EDT on July 23, 2017 (GMT -0400)
Portland International

Weather History for KPWM - March, 2013

Change the Weather History Date:

Sunday, March 24, 2013

  Actual Average Record
Temperature  
Mean Temperature 37 °F 36 °F  
Max Temperature 46 °F 45 °F 63 °F (1987)
Min Temperature 27 °F 28 °F 11 °F (2014)
Degree Days  
Heating Degree Days 28 29  
Month to date heating degree days 756 783  
Since 1 July heating degree days 5355 5825  
Cooling Degree Days 0 0  
Month to date cooling degree days 0 0  
Year to date cooling degree days 0 0  
Moisture  
Dew Point 22 °F    
Average Humidity 55    
Maximum Humidity 69    
Minimum Humidity 40    
Precipitation  
Precipitation 0.00 in 0.15 in 1.71 in (1953)
Month to date precipitation 1.61 3.24  
Year to date precipitation 9.04 9.87  
Snow  
Snow 0.00 in 0.40 in 9.90 in (1897)
Month to date snowfall 13.2 10.8  
Since 1 July snowfall 97.8 57.2  
Snow Depth 5.00 in    
Sea Level Pressure  
Sea Level Pressure 29.75 in    
Wind  
Wind Speed 11 mph (NW)    
Max Wind Speed 21 mph    
Max Gust Speed 27 mph    
Visibility 10 miles    
Events      
T = Trace of Precipitation, MM = Missing Value Source: NWS Daily Summary

Daily Weather History Graph

Daily Weather History Graph

Search for Another Location

Airport or City:

Trip Planner

Search our weather history database for the weather conditions in past years. The results will help you decide how hot, cold, wet, or windy it might be!

Date:

Astronomy

Mar. 24, 2013 Rise Set
Actual Time 6:36 AM EDT 6:58 PM EDT
Civil Twilight 6:08 AM EDT 7:27 PM EDT
Nautical Twilight 5:34 AM EDT 8:01 PM EDT
Astronomical Twilight 4:59 AM EDT 8:36 PM EDT
Moon 4:19 PM EDT (3/24) 4:50 AM EDT (3/24)
Length of Visible Light 13h 19m
Length of Day
12h 21m
Waxing Gibbous, 91% of the Moon is Illuminated
Mar 24
Waxing Gibbous
Mar 27
Full
Apr 3
Last Quarter
Apr 10
New
Apr 18
First Quarter

Hourly Weather History & Observations

Time (EDT) Temp. Windchill Dew Point Humidity Pressure Visibility Wind Dir Wind Speed Gust Speed Precip Events Conditions
12:51 AM 33.1 °F 24.9 °F 21.0 °F 61% 29.69 in 10.0 mi West 10.4 mph - N/A   Clear
1:51 AM 32.0 °F 24.8 °F 21.0 °F 64% 29.69 in 10.0 mi WNW 8.1 mph - N/A   Clear
2:51 AM 32.0 °F 21.6 °F 21.0 °F 64% 29.69 in 10.0 mi WNW 15.0 mph - N/A   Clear
3:51 AM 30.9 °F 23.5 °F 19.9 °F 64% 29.70 in 10.0 mi NW 8.1 mph - N/A   Clear
4:51 AM 30.9 °F 25.2 °F 19.9 °F 64% 29.70 in 10.0 mi WSW 5.8 mph - N/A   Clear
5:51 AM 28.9 °F 21.1 °F 19.9 °F 69% 29.70 in 10.0 mi WNW 8.1 mph - N/A   Clear
6:51 AM 30.0 °F 26.5 °F 19.9 °F 66% 29.73 in 10.0 mi SSW 3.5 mph - N/A   Clear
7:51 AM 33.1 °F 26.1 °F 21.0 °F 61% 29.76 in 10.0 mi West 8.1 mph - N/A   Clear
8:51 AM 36.0 °F 29.0 °F 21.9 °F 57% 29.78 in 10.0 mi West 9.2 mph - N/A   Clear
9:51 AM 37.9 °F 28.5 °F 21.9 °F 53% 29.79 in 10.0 mi NW 17.3 mph 23.0 mph N/A   Clear
10:51 AM 39.9 °F 30.5 °F 21.9 °F 49% 29.77 in 10.0 mi NW 19.6 mph 27.6 mph N/A   Clear
11:51 AM 41.0 °F 32.8 °F 23.0 °F 49% 29.76 in 10.0 mi North 16.1 mph - N/A   Clear
12:51 PM 43.0 °F 34.5 °F 21.0 °F 42% 29.76 in 10.0 mi NNW 19.6 mph 25.3 mph N/A   Partly Cloudy
1:51 PM 44.1 °F 37.1 °F 21.9 °F 42% 29.75 in 10.0 mi NW 15.0 mph 21.9 mph N/A   Clear
2:51 PM 45.0 °F 39.3 °F 21.9 °F 40% 29.75 in 10.0 mi NNW 11.5 mph - N/A   Partly Cloudy
3:51 PM 45.0 °F 38.9 °F 21.9 °F 40% 29.75 in 10.0 mi North 12.7 mph - N/A   Scattered Clouds
4:51 PM 44.1 °F 36.8 °F 21.9 °F 42% 29.73 in 10.0 mi NNW 16.1 mph 24.2 mph N/A   Clear
5:51 PM 43.0 °F 36.8 °F 21.0 °F 42% 29.75 in 10.0 mi NNW 11.5 mph - N/A   Partly Cloudy
6:51 PM 41.0 °F 33.9 °F 21.9 °F 47% 29.77 in 10.0 mi NNW 12.7 mph - N/A   Mostly Cloudy
7:51 PM 39.9 °F 32.9 °F 23.0 °F 51% 29.78 in 10.0 mi NNW 11.5 mph - N/A   Mostly Cloudy
8:51 PM 37.9 °F 32.7 °F 23.0 °F 55% 29.78 in 10.0 mi NW 6.9 mph - N/A   Clear
9:51 PM 35.1 °F 29.3 °F 23.0 °F 61% 29.79 in 10.0 mi NW 6.9 mph - N/A   Clear
10:51 PM 34.0 °F 27.2 °F 23.0 °F 64% 29.79 in 10.0 mi NW 8.1 mph - N/A   Clear
11:51 PM 33.1 °F 26.1 °F 24.1 °F 70% 29.78 in 10.0 mi NW 8.1 mph - N/A   Clear